Location: Unspecified
(51.0950°N, 12.9690°E)
Time: 16:50:36
(UTC+00:00)

Cosmos 1892 - Pass Details

Date: 28 October 2021
Orbit: 501 x 522 km, 82.5° (Epoch: 02 December)

Event Time Altitude Azimuth Distance (km) Brightness Sun altitude
Rises 17:39:35 0° 345° (NNW) 2,617 6.5 -17.8°
Reaches altitude 10° 17:41:45 10° 340° (NNW) 1,725 5.6 -18.2°
Maximum altitude 17:45:24 49° 265° (W) 659 3.6 -18.7°
Drops below altitude 10° 17:49:01 10° 190° (S) 1,707 5.4 -19.3°
Sets 17:51:09 0° 185° (S) 2,586 6.3 -19.6°
